Powrót do katalogu

SL-8 R/B

AktywnyLEO
NORAD 12983·ROCKET BODY·🇷🇺 Russia

Wystrzelony Nov 28, 1981 z Plesetsk Cosmodrome

Loading…

Następne Przeloty (najbliższe 24 godziny)

TLE

ŚwieżeSource: Space-Track

Epoka: Sep 14, 2026, 22:40 UTC

1 12983U 81116J   26257.94471006  .00000076  00000-0  81213-3 0  9994
2 12983  73.9818  74.6723 0114969 282.6100 248.0122 12.24801635737423

Śledź SL-8 R/B w czasie rzeczywistym z AllMySat

Download on the App Store